Tracking 20242 objects as of 24-Jan-2020
HD Live streaming from Space Station
objects crossing your sky now

PSLV DEB

Track PSLV DEB now!
10-day predictions


NORAD ID: 27127
Int'l Code: 2001-049BX
Perigee: 559.2 km
Apogee: 607.4 km
Inclination: 97.5 °
Period: 96.2 minutes
Semi major axis: 6954 km
RCS: 0.304 m2 (medium)
Launch date: October 22, 2001
Source: India (IND)
Launch site: SRIHARIKOTA (SRI)

Note: This is SATELLITE DEBRIS
aabbcc
Your satellite tracking list
Your tracking list is empty




NASA's NSSDC Master Catalog

Two Line Element Set (TLE):
1 27127U 01049BX  20023.51967970  .00000670  00000-0  62550-4 0  9999
2 27127  97.5447  13.0424 0034627  18.5217  95.0594 14.97001023979809
Source of the keplerian elements: AFSPC